Regional Weather Roundup
Issued by NWS Cleveland, OH

Home | Current Version | Previous Version | Graphics & Text | Print | Product List | Glossary On
Versions: 1 2 3 4 5 6 7 8 9 10 11 12 13 14 15 16 17 18 19 20 21 22 23 24 25 26 27 28 29 30 31 32 33 34 35 36 37 38 39 40 41 42 43 44 45 46 47 48 49 50
000
ASUS41 KCLE 300412
RWRCLE
OHIO REGIONAL WEATHER ROUNDUP
NATIONAL WEATHER SERVICE WILMINGTON, OH
1200 AM EDT SAT APR 30 2016

NOTE: "FAIR" INDICATES FEW OR NO CLOUDS BELOW 12,000 FEET WITH NO
SIGNIFICANT WEATHER AND/OR OBSTRUCTIONS TO VISIBILITY.

OHZ001>008-015>018-024>027-034-035-043-044-300500-
   NORTHWEST OHIO

CITY           SKY/WX    TMP DP  RH WIND       PRES   REMARKS
DEFIANCE       CLOUDY    48  40  73 E7        30.16S
FINDLAY        FAIR      45  38  76 E5        30.15R
TOLEDO EXPRESS CLOUDY    47  37  68 E7        30.15F
TOLEDO EXEC    CLOUDY    46  39  76 SE8       30.16F
LIMA           CLOUDY    48  44  86 E6        30.14S
$$

OHZ009>014-019>023-028>033-038-089-300500-
   NORTHEAST OHIO

CITY           SKY/WX    TMP DP  RH WIND       PRES   REMARKS
CLE-HOPKINS    CLOUDY    44  38  79 N3        30.19F
CLE-LAKEFRONT  FAIR      44  38  79 N5        30.17F
CUY CO. ARPT   NOT AVBL
LORAIN-ELYRIA  CLOUDY    43  37  79 NE5       30.17F
ASHTABULA      MOCLDY    38  36  92 CALM      30.17R
AKRON-CANTON   FAIR      42  38  85 N5        30.14F
WOOSTER        FAIR      38  36  92 CALM      30.15F
MANSFIELD      FAIR      39  38  96 NE5       30.14F
YOUNGSTOWN     FAIR      40  37  89 NW3       30.15S
$$

OHZ042-051>053-060>062-070>072-077>081-300500-
  SOUTHWEST OHIO

CITY           SKY/WX    TMP DP  RH WIND       PRES   REMARKS
CINC-COVINGTON NOT AVBL
CINC-LUNKEN    CLOUDY    57  50  77 NE8       30.10F
HAMILTON       MOCLDY    56  49  77 E7        30.11F
DAYTON         CLOUDY    50  45  83 E12       30.12F
WRIGHT-PAT AFB CLOUDY    51  47  84 E7        30.11F
DAYTON GENERAL FAIR      52  45  77 NE12      30.10F
WILMINGTON     FAIR      51  47  86 NE9       30.11S
$$

OHZ036-037-039>041-045>050-054>059-063>069-073>076-082>088-300500-
  CENTRAL AND SOUTHEAST OHIO

CITY           SKY/WX    TMP DP  RH WIND       PRES   REMARKS
COLUMBUS       CLOUDY    49  41  74 CALM      30.13S
OSU AIRPORT    FAIR      48  41  76 NE3       30.13F
BOLTON FIELD   FAIR      50  43  77 NE7       30.13F
RICKENBACK AFB FAIR      50  43  77 NE10      30.13F
NEWARK         FAIR      49  41  74 CALM      30.13F
MARION         MOCLDY    42  40  92 E6        30.15S
LANCASTER      FAIR      50  44  80 N7        30.13F
ZANESVILLE     CLOUDY    50  42  74 N7        30.14S
NEW PHILLY     CLOUDY    46  41  82 VRB6      30.14F
$$



USA.gov is the U.S. government's official web portal to all federal, state and local government web resources and services.